IT9FBN-3 Weather Reports


Display with metric or nautical units.
time (UTC)temp
F
wind
direction
speed
MPH
gust
MPH
rain 1hr
in
rain 24hr
in
rain mn
in
humidity
%
barometer
mb
20260507153003 71 68 8.0 16.0 0.00 0.00 0.00 57 1010.4
20260507152503 71 66 7.0 14.0 0.00 0.00 0.00 59 1010.2
20260507152003 71 89 8.0 13.0 0.00 0.00 0.00 59 1010.2
20260507151503 70 105 6.0 13.0 0.00 0.00 0.00 59 1010.1
20260507151003 71 107 5.0 15.0 0.00 0.00 0.00 58 1009.9
20260507150503 70 81 8.0 17.0 0.00 0.00 0.00 58 1009.9
20260507150002 70 58 8.0 17.0 0.00 0.00 0.00 61 1010.0
20260507145503 71 63 8.0 17.0 0.00 0.00 0.00 61 1010.2
20260507145002 71 71 9.0 17.0 0.00 0.00 0.00 60 1010.2
20260507144503 71 87 9.0 17.0 0.00 0.00 0.00 59 1010.5
20260507144003 72 105 10.0 18.0 0.00 0.00 0.00 52 1010.5
20260507143503 72 106 11.0 18.0 0.00 0.00 0.00 51 1010.5
20260507143003 72 103 11.0 18.0 0.00 0.00 0.00 53 1010.4
20260507142502 72 98 10.0 18.0 0.00 0.00 0.00 52 1010.6
20260507142003 72 101 10.0 18.0 0.00 0.00 0.00 52 1010.6
20260507141503 72 110 11.0 18.0 0.00 0.00 0.00 51 1010.5
20260507141003 72 104 11.0 21.0 0.00 0.00 0.00 51 1010.5
20260507140503 72 95 11.0 21.0 0.00 0.00 0.00 51 1010.5
20260507140003 72 97 12.0 21.0 0.00 0.00 0.00 51 1010.5
20260507135503 72 89 13.0 21.0 0.00 0.00 0.00 51 1010.3
20260507135003 73 88 9.0 18.0 0.00 0.00 0.00 50 1010.3
20260507134503 74 140 4.0 15.0 0.00 0.00 0.00 49 1010.4
20260507134003 74 190 4.0 10.0 0.00 0.00 0.00 47 1010.1
20260507133503 75 168 3.0 10.0 0.00 0.00 0.00 45 1010.3
20260507133003 74 85 2.0 7.0 0.00 0.00 0.00 47 1010.2
20260507132503 74 186 3.0 7.0 0.00 0.00 0.00 46 1010.3
20260507132003 74 223 4.0 9.0 0.00 0.00 0.00 47 1010.4
20260507131503 73 212 5.0 11.0 0.00 0.00 0.00 46 1010.3
20260507131002 73 199 6.0 11.0 0.00 0.00 0.00 46 1010.4
20260507130503 73 191 5.0 11.0 0.00 0.00 0.00 47 1010.6
20260507130003 73 176 4.0 10.0 0.00 0.00 0.00 48 1010.7
20260507125503 73 180 6.0 12.0 0.00 0.00 0.00 48 1010.7
20260507125003 72 194 6.0 12.0 0.00 0.00 0.00 48 1010.5
20260507124503 73 187 6.0 10.0 0.00 0.00 0.00 48 1010.8
20260507124003 73 179 6.0 10.0 0.00 0.00 0.00 49 1010.7
20260507123503 72 175 5.0 10.0 0.00 0.00 0.00 49 1010.6
20260507123003 73 171 4.0 8.0 0.00 0.00 0.00 49 1010.5
20260507122503 73 176 3.0 10.0 0.00 0.00 0.00 49 1010.5
20260507122004 73 171 4.0 10.0 0.00 0.00 0.00 48 1010.4
20260506191502 66 218 6.0 8.0 0.00 0.00 0.00 61 1012.4
20260506191002 66 223 6.0 11.0 0.00 0.00 0.00 61 1012.3
20260506190502 66 220 7.0 11.0 0.00 0.00 0.00 60 1012.2
20260506190002 66 218 7.0 11.0 0.00 0.00 0.00 59 1012.2
20260506185502 66 215 7.0 11.0 0.00 0.00 0.00 59 1012.3
20260506185002 66 212 7.0 10.0 0.00 0.00 0.00 63 1012.3
20260506184502 66 212 7.0 11.0 0.00 0.00 0.00 64 1011.9
20260506184002 66 214 8.0 13.0 0.00 0.00 0.00 65 1011.9
20260506183503 66 220 8.0 13.0 0.00 0.00 0.00 65 1011.9
20260506183002 66 228 7.0 11.0 0.00 0.00 0.00 64 1011.9
20260506182503 67 225 6.0 9.0 0.00 0.00 0.00 63 1012.0
20260506182002 67 222 6.0 9.0 0.00 0.00 0.00 61 1012.1
20260506181502 68 224 5.0 6.0 0.00 0.00 0.00 58 1012.4
20260506181002 68 226 6.0 11.0 0.00 0.00 0.00 55 1012.5
20260506180503 68 230 6.0 11.0 0.00 0.00 0.00 52 1012.5
20260506180003 69 235 6.0 12.0 0.00 0.00 0.00 51 1012.2
20260506175502 69 237 7.0 12.0 0.00 0.00 0.00 49 1012.1
20260506175002 69 230 7.0 10.0 0.00 0.00 0.00 50 1012.1
20260506174502 69 226 6.0 10.0 0.00 0.00 0.00 50 1012.2
20260506174003 68 241 3.0 8.0 0.00 0.00 0.00 53 1012.2
20260506173502 68 348 1.0 4.0 0.00 0.00 0.00 58 1012.3
20260506173002 69 9 2.0 5.0 0.00 0.00 0.00 58 1012.6
20260506172502 70 348 2.0 5.0 0.00 0.00 0.00 52 1012.8
20260506172002 70 301 3.0 8.0 0.00 0.00 0.00 45 1012.7
20260506171503 70 287 2.0 8.0 0.00 0.00 0.00 43 1012.7
20260506171002 69 327 1.0 5.0 0.00 0.00 0.00 57 1012.6
20260506170502 69 347 1.0 4.0 0.00 0.00 0.00 58 1012.7
20260506170002 69 360 2.0 6.0 0.00 0.00 0.00 57 1012.8
20260506165503 70 2 2.0 6.0 0.00 0.00 0.00 54 1012.8
20260506165002 71 337 2.0 5.0 0.00 0.00 0.00 46 1012.8
20260506164503 71 307 2.0 5.0 0.00 0.00 0.00 41 1012.8
20260506164002 71 230 1.0 4.0 0.00 0.00 0.00 43 1012.9
20260506163502 70 0 0.0 0.0 0.00 0.00 0.00 47 1013.1
20260506163003 70 0 0.0 0.0 0.00 0.00 0.00 52 1013.0
20260506162502 70 0 0.0 0.0 0.00 0.00 0.00 52 1013.1
20260506162002 70 0 0.0 0.0 0.00 0.00 0.00 52 1013.0
20260506161503 70 226 0.0 1.0 0.00 0.00 0.00 51 1012.9
20260506161002 70 226 1.0 4.0 0.00 0.00 0.00 50 1012.9
20260506160503 70 227 3.0 6.0 0.00 0.00 0.00 53 1012.7
20260506160002 70 220 4.0 6.0 0.00 0.00 0.00 53 1012.7
20260506155503 70 218 5.0 8.0 0.00 0.00 0.00 52 1012.5
20260506155003 70 226 6.0 10.0 0.00 0.00 0.00 51 1012.7
20260506154503 70 228 7.0 12.0 0.00 0.00 0.00 52 1012.7
20260506154002 70 227 8.0 12.0 0.00 0.00 0.00 52 1012.7
20260506153503 70 225 8.0 12.0 0.00 0.00 0.00 54 1012.7